THURAYA-2

Last updated on Sun Jun 21 2026 00:03:03 GMT+0000 (Coordinated Universal Time)

1 27825U 03026A 26171.25812353 .00000116 00000+0 00000+0 0 9997 2 27825 8.8445 31.9625 0002970 12.7773 0.6575 1.00272422 84382
UTC large
Height (km)
Speed (km/s)
/
Latitude / Longitude
Inclination (degrees)
Orbital Period (minutes)
Azimuth
Elevation
Range (km)
Doppler Factor

Next 0 passes for location: London (51.5072 / 0.1276)

No passes found over London.
THURAYA-2